Terminal Aerodrome Forecast
Issued by NWS

Home | Current Version | Previous Version | Graphics & Text | Print | Product List | Glossary On
Versions: 1 2 3 4 5 6 7 8 9 10 11 12 13 14 15 16 17
000
FTUS43 KTOP 191000 AAA
TAFMHK
TAF AMD
KMHK 191006Z 1910/2006 15005KT 6SM BR SCT005
      TEMPO 1910/1914 6SM BR BKN004
     FM191500 19010KT P6SM SCT020
     FM191800 19011KT P6SM FEW040=

USA.gov is the U.S. government's official web portal to all federal, state and local government web resources and services.